Regional Weather Roundup
Issued by NWS

Home | Current Version | Previous Version | Text Only | Print | Product List | Glossary Off
Versions: 1 2 3 4 5 6 7 8 9 10 11 12 13 14 15 16 17 18 19 20 21 22 23 24 25 26 27

000
ASUS45 KTFX 260310
RWRMT
MONTANA REGIONAL WEATHER ROUNDUP
NATIONAL WEATHER SERVICE GREAT FALLS MT
900 PM MDT THU AUG 25 2016

NOTE: "FAIR" INDICATES FEW OR NO CLOUDS BELOW 12000 FEET WITH NO
SIGNIFICANT WEATHER AND/OR OBSTRUCTIONS TO VISIBILITY.

MTZ001>007-043-260400-
WEST OF THE DIVIDE

CITY           SKY/WX    TMP DP  RH WIND       PRES   REMARKS
KALISPELL      MOCLDY    64  42  44 N18       30.11R
MISSOULA       CLEAR     67  33  28 N10G18    30.09R
BUTTE          CLOUDY    59  30  33 NE5       30.18R
MULLAN PASS    PTCLDY    56  29  35 VRB3      30.21S
DEER LODGE       N/A     61  34  36 N6        30.18R
EUREKA           N/A     68  41  37 NW12      30.12R
HAMILTON         N/A     61  36  39 E5        30.09R
LIBBY            N/A     68  36  30 CALM      30.07S
PLAINS           N/A     65  37  35 CALM      30.08R
RONAN            N/A     65  35  32 N5        30.14S
$$

MTZ008-052>055-260400-
SOUTHWEST MONTANA

CITY           SKY/WX    TMP DP  RH WIND       PRES   REMARKS
BOZEMAN        CLOUDY    53  39  59 N7        30.15R
DILLON         CLOUDY    58  28  32 NE10      30.13S
W YELLOWSTONE  CLOUDY    55  28  35 NE10      30.20R
ENNIS          CLEAR     55  28  35 N10       30.20R
THREE FORKS      N/A     61 -19   3 CALM      30.13R
TWIN BRIDGES     N/A     61  26  26 N9        30.11R
$$

MTZ009-010-012-014-046-048-049-054-260400-
EAST SLOPES AND CENTRAL MONTANA

CITY           SKY/WX    TMP DP  RH WIND       PRES   REMARKS
CUT BANK       CLOUDY    55  45  68 N15       30.21R
GREAT FALLS    CLOUDY    58  36  43 CALM      30.15R
MALMSTROM AFB  CLEAR     62  35  37 SE2       30.15R
HELENA         PTCLDY    65  36  34 SE6       30.14R
CHOTEAU          N/A     59  41  51 N13G18    30.21R
CONRAD           N/A     57  46  66 NW3       30.20R
$$

MTZ011-013-016-021-045-047-050-051-260400-
NORTH CENTRAL MONTANA

CITY           SKY/WX    TMP DP  RH WIND       PRES   REMARKS
HAVRE          CLOUDY    63  43  48 N7        30.12R
LEWISTOWN      LGT RAIN  59  40  49 VRB3      30.18R
N BAR RANCH    CLOUDY    55  37  50 CALM      30.21R
CHINOOK          N/A     63  45  51 CALM      30.13R
$$

MTZ017>020-022>027-061-062-260400-
NORTHEAST MONTANA

CITY           SKY/WX    TMP DP  RH WIND       PRES   REMARKS
GLASGOW        PTCLDY    63  42  46 NE3       30.10R
JORDAN           N/A     61  36  39 CALM      30.12S
SIDNEY         CLOUDY    58  42  55 W7        30.10S
WOLF POINT     CLOUDY    64  44  48 NW5       30.10R
POPLAR           N/A     66  43  42 N5        30.10S
SCOBEY           N/A     59  42  53 CALM      30.09S
$$

MTZ028>42-056>058-260400-
SOUTHCENTRAL AND SOUTHEAST MONTANA

CITY           SKY/WX    TMP DP  RH WIND       PRES   REMARKS
BAKER          PTCLDY    56  39  53 SW8       30.18R
BILLINGS       PTCLDY    62  40  44 E7        30.15R
LIVINGSTON     CLOUDY    58  33  39 E9        30.15R
MILES CITY     CLEAR     64  36  35 S3        30.15R
EKALAKA          N/A     54  36  50 SE3       30.16R
FORSYTH          N/A     59  39  47 CALM      30.14S
LAUREL           N/A     59  38  45 CALM      30.13R
ROUNDUP          N/A     61  36  39 E3        30.06S
$$

REGIONAL REPORTS...DAKOTAS

CITY           SKY/WX    TMP DP  RH WIND       PRES   REMARKS
WILLISTON      CLOUDY    61  38  42 SW3       30.09R
MINOT          PTCLDY    62  39  42 SE3       30.06S
DICKINSON      CLEAR     50  39  66 SW8       30.13R
CROSBY           N/A     54  41  62 W8        30.09S
WATFORD CITY     N/A     55  39  54 SW9       30.10S
BISMARCK       PTCLDY    58  47  66 S5        30.11S
GRAND FORKS    PTCLDY    56  51  84 S9        30.04S
FARGO          CLOUDY    63  52  67 SW5       30.07S
BUFFALO SD       N/A     64  39  39 CALM      30.13R
RAPID CITY     PTCLDY    52  45  77 CALM      30.21R
$$

REGIONAL REPORTS...WYOMING/IDAHO/WASHINGTON

CITY           SKY/WX    TMP DP  RH WIND       PRES   REMARKS
GILLETTE       CLOUDY    53  39  59 SE7       30.19R
SHERIDAN       CLOUDY    56  44  64 CALM      30.16R
BUFFALO WY     CLOUDY    58  41  53 S3        30.22R
CODY           CLOUDY    57  41  54 N5        30.18S
YELLOWSTONE LA   N/A     50  28  42 VRB3      30.27R
IDAHO FALLS    CLOUDY    61  32  33 CALM      30.06R
SALMON         CLEAR     64  36  34 N8        30.02S
BOISE          CLEAR     75  37  25 W9        29.97S
SPOKANE        MOCLDY    78  35  21 NE5       30.03S
$$

REGIONAL REPORTS...ALBERTA

CITY           SKY/WX    TMP DP  RH WIND       PRES   REMARKS
EDMONTON       CLEAR     57  50  77 W6        30.14R
LETHBRIDGE     MOCLDY    55  50  82 W14       30.19S
MEDICINE HAT   MOCLDY    55  52  88 W10       30.12S
WATERTON GATE    N/A     50  45  81 S6          N/A
MILK RIVER       N/A     52  48  87 W7          N/A
$$

REGIONAL REPORTS...SASKATCHEWAN

CITY           SKY/WX    TMP DP  RH WIND       PRES   REMARKS
SWIFT CURRENT  CLOUDY    57  52  82 W8        30.07S
REGINA         MOCLDY    57  54  88 W7        30.06S
SASKATOON      MOCLDY    57  54  88 W8        30.00F
CYPRESS HILLS    N/A     48  43  81 NW7         N/A
VAL MARIE        N/A     55  46  71 CALM        N/A
ROCKGLEN         N/A     55  48  76 NW7         N/A
ASSINIBOIA       N/A     55  54  94 NW7         N/A
$$




USA.gov is the U.S. government's official web portal to all federal, state and local government web resources and services.